Date,TemperatureHighF,TemperatureAvgF,TemperatureLowF,DewpointHighF,DewpointAvgF,DewpointLowF,HumidityHigh,HumidityAvg,HumidityLow,PressureMaxIn,PressureMinIn,WindSpeedMaxMPH,WindSpeedAvgMPH,GustSpeedMaxMPH,PrecipitationSumIn
2013-5-1,82,72,66,81,71,66,98,98,98,29.71,29.62,6,3,0,0.05
2013-5-2,79,70,66,78,70,65,98,98,98,29.77,29.67,6,2,0,0.19
2013-5-3,68,57,43,67,56,43,98,98,98,29.87,29.71,9,3,0,0.13
2013-5-4,77,59,39,63,51,39,98,80,41,29.85,29.67,14,2,0,0.00
2013-5-5,68,58,48,59,53,47,98,85,60,29.86,29.70,10,3,0,0.00
2013-5-6,82,63,46,68,57,45,98,84,55,29.87,29.74,11,2,0,0.00
2013-5-7,87,70,53,77,64,53,98,83,51,29.87,29.78,7,1,0,0.00
2013-5-8,87,72,56,80,68,55,98,88,58,29.91,29.83,5,2,0,0.00
2013-5-9,85,74,61,83,73,60,98,97,79,29.90,29.80,6,2,0,0.00
2013-5-10,73,69,66,72,68,65,98,98,98,29.87,29.68,11,2,0,3.15
2013-5-11,66,66,66,66,66,66,98,98,98,29.78,29.78,0,0,0,0.00
2013-5-12,66,66,66,66,66,66,98,98,98,29.78,29.78,0,0,0,0.00
2013-5-13,66,66,66,66,66,66,98,98,98,29.78,29.78,0,0,0,0.00
2013-5-14,66,66,66,66,66,66,98,98,98,29.78,29.78,0,0,0,0.00
2013-5-15,66,66,66,66,66,66,98,98,98,29.78,29.78,0,0,0,0.00
2013-5-16,88,78,66,83,74,66,98,90,63,63.77,29.69,7,3,0,0.00
2013-5-17,89,79,70,88,78,69,98,98,98,29.82,29.74,9,3,0,0.01
2013-5-18,79,75,74,78,75,74,98,98,98,29.84,29.77,4,2,0,0.00
2013-5-19,91,84,76,90,83,76,98,98,97,29.79,29.73,9,3,0,0.00
2013-5-20,93,82,74,93,82,73,98,98,98,29.80,29.68,7,3,0,0.00
2013-5-21,92,82,75,91,82,75,98,98,98,29.76,29.59,8,3,0,0.00
2013-5-22,88,75,68,88,74,67,98,98,98,29.80,29.67,8,2,0,3.44
2013-5-23,95,78,67,91,76,66,98,96,73,29.85,29.76,5,1,0,0.92
2013-5-24,90,78,66,90,78,65,98,98,98,29.96,29.84,8,2,0,0.01
2013-5-25,88,77,67,85,74,66,98,90,70,30.03,29.91,9,3,0,0.00
2013-5-26,87,77,68,87,76,67,98,97,81,29.99,29.89,7,2,0,0.00
2013-5-27,93,79,65,85,76,65,98,91,69,29.93,29.79,7,2,0,0.00
2013-5-28,87,78,68,87,77,67,98,98,98,29.88,29.77,7,2,0,0.00
2013-5-29,86,76,68,85,76,67,98,98,98,29.82,29.72,10,2,0,0.09
2013-5-30,87,80,74,87,79,73,98,98,98,29.80,29.71,9,3,0,0.37
2013-5-31,91,81,74,91,81,74,98,98,98,29.80,29.72,7,2,0,0.19